Tracking 28081 objects as of 27-Sep-2023
HD Live streaming from Space Station
objects crossing your sky now

SL-16 DEB

Track SL-16 DEB now!
10-day predictions


NORAD ID: 43353
Int'l Code: 1995-058N
Perigee: 767.2 km
Apogee: 808.9 km
Inclination: 71.0 °
Period: 100.5 minutes
Semi major axis: 7159 km
RCS: Unknown
Launch date: October 31, 1995
Source: Commonwealth of Independent States (former USSR) (CIS)
Launch site: TYURATAM MISSILE AND SPACE COMPLEX (TTMTR)

Note: This is SATELLITE DEBRIS
Your satellite tracking list
Your tracking list is empty




NASA's NSSDC Master Catalog

Two Line Element Set (TLE):
1 43353U 95058N   23269.84703530  .00012877  00000-0  46673-2 0  9990
2 43353  71.0015 149.7795 0029106 326.7239  33.2062 14.33235747511626
Source of the keplerian elements: AFSPC